Total_Precipitation_Accumulation
0.25 0.27 0.30 0.29 0.28 0.28 0.32 0.43 0.60 0.44 0.12 0.03 0.05 0.08 0.12 0.16 0.22 0.27 0.27 0.32 0.38 0.43 0.51 0.59 0.62 0.65 0.79 1.13 1.86 2.72 3.36 3.46 3.14 2.65 2.40 2.57 2.88 3.32
0.29 0.33 0.35 0.35 0.33 0.33 0.34 0.36 0.49 0.61 0.38 0.08 0.07 0.10 0.14 0.16 0.22 0.26 0.25 0.30 0.35 0.39 0.41 0.45 0.54 0.63 0.72 0.86 1.16 1.85 2.62 3.24 3.46 3.34 3.08 3.00 3.16 3.47
0.35 0.39 0.38 0.38 0.42 0.41 0.41 0.41 0.42 0.51 0.53 0.16 0.07 0.10 0.18 0.24 0.24 0.24 0.24 0.25 0.28 0.34 0.39 0.40 0.45 0.53 0.63 0.73 0.88 1.25 1.93 2.59 3.19 3.54 3.68 3.58 3.52 3.52
0.45 0.46 0.45 0.45 0.46 0.47 0.52 0.52 0.48 0.47 0.54 0.35 0.12 0.11 0.17 0.25 0.28 0.26 0.25 0.23 0.24 0.29 0.35 0.41 0.44 0.49 0.57 0.66 0.76 0.91 1.28 1.84 2.46 3.01 3.39 3.47 3.45 3.63
0.51 0.56 0.57 0.57 0.57 0.56 0.59 0.61 0.58 0.51 0.51 0.50 0.28 0.17 0.19 0.25 0.31 0.31 0.29 0.29 0.27 0.30 0.32 0.38 0.45 0.50 0.53 0.59 0.68 0.77 0.88 1.15 1.61 2.27 2.92 3.19 3.21 3.26
0.55 0.60 0.65 0.70 0.72 0.73 0.77 0.76 0.73 0.69 0.61 0.57 0.45 0.32 0.30 0.31 0.38 0.39 0.35 0.33 0.36 0.36 0.35 0.35 0.40 0.47 0.50 0.50 0.50 0.56 0.71 0.98 1.33 1.75 2.32 2.75 2.86 2.88
0.58 0.62 0.66 0.76 0.92 1.07 1.18 1.10 0.96 0.93 0.86 0.79 0.66 0.50 0.43 0.45 0.53 0.49 0.50 0.41 0.42 0.46 0.43 0.36 0.33 0.33 0.37 0.45 0.51 0.54 0.60 0.75 1.00 1.36 1.82 2.31 2.62 2.68
0.54 0.51 0.53 0.61 0.72 0.85 1.02 1.04 1.00 1.11 1.16 1.07 0.93 0.79 0.60 0.54 0.62 0.71 0.74 0.72 0.61 0.50 0.50 0.47 0.42 0.41 0.39 0.39 0.49 0.54 0.62 0.74 0.87 1.09 1.45 1.84 2.24 2.57
0.39 0.39 0.40 0.43 0.51 0.52 0.63 0.68 0.74 0.84 1.01 1.14 1.17 0.96 0.78 0.69 0.82 0.95 0.96 0.94 0.74 0.62 0.70 0.75 0.63 0.56 0.51 0.51 0.57 0.55 0.62 0.71 0.83 0.96 1.13 1.44 1.83 2.23
0.33 0.36 0.36 0.38 0.44 0.56 0.62 0.56 0.50 0.52 0.70 0.90 1.09 1.02 0.92 0.93 1.11 1.30 1.35 1.33 1.09 0.85 0.83 0.98 0.85 0.77 0.70 0.64 0.61 0.55 0.56 0.60 0.67 0.82 1.01 1.21 1.46 1.80
0.32 0.38 0.40 0.36 0.44 0.60 0.66 0.59 0.46 0.42 0.47 0.69 0.91 1.04 1.10 1.22 1.42 1.65 1.73 1.76 1.62 1.29 1.08 1.10 1.01 0.92 0.89 0.85 0.76 0.67 0.59 0.55 0.55 0.65 0.83 1.04 1.28 1.54
0.28 0.34 0.48 0.50 0.51 0.56 0.60 0.61 0.59 0.46 0.38 0.39 0.44 0.55 0.69 0.81 1.08 1.38 1.55 1.68 1.67 1.62 1.34 1.24 1.22 1.16 1.23 1.02 0.82 0.68 0.60 0.59 0.54 0.54 0.63 0.81 1.06 1.26
0.33 0.36 0.42 0.49 0.47 0.49 0.55 0.58 0.63 0.56 0.47 0.47 0.44 0.41 0.45 0.58 0.76 1.05 1.31 1.50 1.62 1.60 1.36 1.39 1.49 1.36 1.31 1.14 0.89 0.74 0.63 0.55 0.48 0.48 0.53 0.64 0.86 1.06
0.38 0.30 0.35 0.42 0.43 0.47 0.46 0.49 0.51 0.53 0.51 0.46 0.40 0.34 0.35 0.46 0.58 0.77 1.03 1.19 1.28 1.32 1.21 1.34 1.58 1.37 1.30 1.13 0.94 0.85 0.74 0.66 0.54 0.45 0.43 0.58 0.74 0.93
0.40 0.46 0.41 0.38 0.35 0.30 0.29 0.35 0.38 0.38 0.45 0.42 0.33 0.27 0.28 0.37 0.45 0.57 0.74 0.95 1.05 1.08 1.11 1.17 1.35 1.35 1.35 1.23 0.93 0.82 0.84 0.84 0.70 0.58 0.51 0.48 0.53 0.67
0.36 0.41 0.40 0.30 0.24 0.20 0.18 0.21 0.25 0.31 0.37 0.37 0.29 0.23 0.23 0.30 0.41 0.52 0.68 0.86 1.03 1.04 1.05 1.12 1.30 1.53 1.53 1.18 1.01 0.90 0.79 0.88 0.82 0.69 0.58 0.52 0.50 0.52
0.52 0.49 0.41 0.32 0.28 0.23 0.18 0.15 0.17 0.23 0.30 0.30 0.29 0.29 0.29 0.31 0.36 0.43 0.62 0.78 0.96 0.96 1.02 1.17 1.33 1.48 1.61 1.53 1.35 1.05 0.85 0.77 0.77 0.75 0.68 0.62 0.59 0.58
0.54 0.50 0.36 0.27 0.24 0.22 0.21 0.19 0.17 0.18 0.21 0.26 0.30 0.30 0.31 0.32 0.35 0.39 0.52 0.69 0.81 0.82 0.91 1.08 1.30 1.51 1.72 1.86 1.63 1.25 0.98 0.86 0.83 0.81 0.74 0.68 0.68 0.68
0.40 0.31 0.23 0.21 0.21 0.20 0.20 0.20 0.18 0.15 0.18 0.24 0.27 0.28 0.29 0.32 0.36 0.40 0.46 0.58 0.69 0.74 0.84 0.99 1.20 1.44 1.53 1.59 1.70 1.44 1.16 0.99 0.92 0.94 0.88 0.73 0.68 0.68
0.24 0.22 0.21 0.19 0.20 0.21 0.20 0.19 0.18 0.18 0.20 0.22 0.24 0.25 0.28 0.34 0.36 0.37 0.42 0.53 0.62 0.69 0.76 0.89 1.09 1.31 1.44 1.34 1.38 1.42 1.38 1.16 1.01 1.00 0.99 0.88 0.80 0.83
0.19 0.19 0.19 0.21 0.21 0.20 0.19 0.20 0.20 0.21 0.19 0.20 0.21 0.23 0.26 0.33 0.35 0.32 0.36 0.44 0.58 0.67 0.71 0.74 0.88 1.09 1.35 1.41 1.34 1.24 1.32 1.41 1.21 1.07 1.03 1.03 1.02 1.01
0.19 0.20 0.19 0.20 0.21 0.21 0.21 0.21 0.22 0.20 0.18 0.20 0.20 0.21 0.24 0.30 0.34 0.33 0.38 0.46 0.52 0.58 0.64 0.66 0.74 0.97 1.32 1.50 1.41 1.24 1.24 1.39 1.52 1.37 1.16 1.05 1.11 1.15
0.23 0.24 0.22 0.22 0.22 0.22 0.23 0.23 0.22 0.20 0.18 0.20 0.21 0.22 0.24 0.29 0.30 0.34 0.37 0.41 0.48 0.52 0.59 0.67 0.73 0.90 1.16 1.34 1.42 1.34 1.25 1.25 1.32 1.40 1.49 1.28 1.00 0.93